This is the latest recevied weather packets stored in our database for station/object NQ9F. If no packets are shown the sender has not sent any weather packets the latest 10 day(s).
| Time | Temp. | Humidity | Pressure | Rain* | Wind** | Luminosity | Snow |
|---|---|---|---|---|---|---|---|
| 1777140407 | 27.78° C | 75% | 1006.5 hPa | 0 mm | - | 933 W/m² | - |
| 1777140105 | 27.78° C | 74% | 1006.5 hPa | 0 mm | - | 775 W/m² | - |
| 1777139803 | 27.78° C | 74% | 1006.7 hPa | 0 mm | - | 283 W/m² | - |
| 1777139499 | 27.78° C | 74% | 1006.7 hPa | 0 mm | - | 203 W/m² | - |
| 1777139194 | 27.78° C | 72% | 1006.9 hPa | 0 mm | - | 615 W/m² | - |
| 1777138891 | 27.78° C | 73% | 1006.9 hPa | 0 mm | - | 209 W/m² | - |
| 1777138587 | 27.78° C | 74% | 1007 hPa | 0 mm | - | 893 W/m² | - |
| 1777138283 | 27.22° C | 75% | 1007.2 hPa | 0 mm | - | 892 W/m² | - |
| 1777137980 | 27.22° C | 75% | 1007.3 hPa | 0 mm | - | 865 W/m² | - |
| 1777137675 | 27.22° C | 75% | 1007.2 hPa | 0 mm | - | 903 W/m² | - |
| 1777137373 | 26.67° C | 77% | 1007.4 hPa | 0 mm | - | 990 W/m² | - |
| 1777137069 | 26.67° C | 77% | 1007.4 hPa | 0 mm | - | 1031 W/m² | - |
| 1777136766 | 26.11° C | 78% | 1007.6 hPa | 0 mm | - | 1043 W/m² | - |
| 1777136463 | 26.11° C | 79% | 1007.7 hPa | 0 mm | - | 446 W/m² | - |
| 1777136160 | 26.11° C | 82% | 1007.6 hPa | 0 mm | - | 731 W/m² | - |
| 1777135856 | 26.11° C | 81% | 1007.6 hPa | 0 mm | - | 707 W/m² | - |
| 1777135552 | 26.11° C | 82% | 1007.6 hPa | 0 mm | - | 526 W/m² | - |
| 1777135249 | 26.11° C | 83% | 1007.6 hPa | 0 mm | - | 374 W/m² | - |
| 1777134946 | 25.56° C | 83% | 1007.5 hPa | 0 mm | - | 692 W/m² | - |
| 1777134643 | 25.56° C | 82% | 1007.6 hPa | 0 mm | - | 653 W/m² | - |
| 1777134339 | 25.56° C | 84% | 1007.7 hPa | 0 mm | - | 387 W/m² | - |
| 1777134036 | 25.56° C | 82% | 1007.8 hPa | 0 mm | - | 415 W/m² | - |
| 1777133732 | 26.11° C | 81% | 1007.5 hPa | 0 mm | - | 806 W/m² | - |
| 1777133432 | 25.56° C | 83% | 1007.6 hPa | 0 mm | - | 768 W/m² | - |
| 1777133127 | 25.56° C | 83% | 1007.5 hPa | 0 mm | - | 828 W/m² | - |
* Rain latest hour (hover to see other rain measurements)
** Current wind speed in m/s (hover to see current wind gust speed)